Theta_e
322 319 319 319 319 316 313 309 306 304 304 302 301 301 301 301 301 302 305 306 308 312 315 319 319 320 321 323 321 320 319 317 317 319 320 319 318 318 319 321 321 322 325
321 318 317 317 316 314 311 306 304 303 303 303 300 300 300 300 300 301 303 306 307 312 315 317 319 321 323 319 316 319 316 314 315 315 316 316 315 316 318 317 318 319 320
319 316 315 315 314 312 308 305 303 303 302 301 300 299 299 299 299 299 301 305 309 312 316 316 319 322 319 314 313 318 315 312 312 313 312 313 313 316 315 315 315 316 317
318 315 312 312 312 307 304 302 301 300 301 299 299 299 299 299 300 300 301 304 310 312 310 311 315 320 318 311 309 313 315 310 311 310 310 312 313 313 312 313 313 315 315
316 313 310 310 309 304 302 301 300 300 299 299 299 299 299 299 299 298 301 304 308 311 309 303 303 305 308 306 307 310 310 308 309 309 308 310 310 310 310 311 311 312 313
314 311 309 308 306 302 300 300 300 300 300 299 294 295 297 299 299 299 301 304 304 304 305 305 303 299 299 301 304 307 307 307 307 306 308 307 307 307 307 308 309 310 310
313 310 307 306 304 301 300 300 299 298 298 299 295 296 295 296 295 297 300 300 299 299 298 299 300 299 298 301 303 306 307 307 305 305 304 304 304 305 306 306 307 308 308
311 308 306 304 303 300 300 299 298 296 297 297 295 296 292 292 294 294 297 298 297 297 296 296 296 296 297 300 304 305 306 305 304 302 301 301 302 303 304 305 305 306 307
310 308 305 304 302 300 299 299 298 297 294 295 298 298 295 293 292 293 293 295 295 294 295 294 293 294 295 299 301 300 300 298 297 297 297 298 299 300 302 303 304 304 305
308 307 305 304 302 300 299 299 298 297 297 293 294 295 297 298 293 288 292 292 293 292 293 293 292 292 294 297 300 297 294 292 292 293 294 295 297 299 300 301 302 302 303
306 305 305 303 301 300 299 298 297 296 297 296 293 293 293 294 295 295 289 289 291 292 292 292 292 292 292 294 296 293 291 291 290 291 291 292 294 296 297 299 300 301 302
302 302 303 302 301 300 298 298 297 296 296 296 295 295 292 291 290 291 294 290 289 290 291 292 291 291 291 292 294 293 290 288 289 289 290 291 292 293 295 296 298 299 300
300 299 300 300 299 299 299 298 297 296 295 295 296 295 294 294 295 293 293 291 290 290 290 291 291 291 291 292 292 289 288 288 288 288 289 290 291 292 293 294 296 297 298
299 300 299 299 298 298 297 297 296 296 295 295 294 295 294 294 295 294 292 290 289 287 287 287 290 290 291 291 291 289 287 287 287 288 289 290 290 291 292 293 294 295 296
297 298 299 298 297 296 296 296 295 294 294 294 294 294 294 294 294 294 293 293 291 286 284 287 286 289 290 290 290 286 285 287 286 287 288 289 290 290 291 292 293 295 295
295 295 295 296 297 296 295 294 293 293 293 293 293 292 293 293 293 293 292 292 292 292 289 288 287 288 289 288 289 286 286 286 285 286 288 288 289 289 290 291 292 293 294
292 292 293 293 294 294 294 294 293 293 291 291 291 291 291 291 291 291 291 290 290 291 291 284 287 287 287 286 285 285 285 283 283 286 287 287 288 289 289 291 291 291 292
289 290 291 290 291 292 292 292 291 291 291 290 290 289 289 290 289 289 289 288 288 288 289 282 283 283 284 285 284 282 281 282 283 285 286 287 287 288 289 290 289 289 290
287 288 288 289 289 289 290 291 291 290 290 290 290 289 288 288 287 288 288 287 287 283 286 286 280 282 282 284 283 281 281 281 281 284 286 286 287 288 289 288 288 288 288
285 286 287 287 287 288 287 288 288 288 289 289 289 289 289 287 287 287 286 286 285 284 284 284 281 279 279 281 281 279 278 280 280 281 283 283 284 285 287 287 287 287 287
283 284 285 286 286 286 286 286 287 287 287 287 288 288 288 288 288 288 286 285 285 284 283 283 282 279 278 277 277 280 280 280 280 282 281 281 281 282 283 286 285 285 285
281 283 284 284 284 284 287 288 288 286 286 285 285 287 287 286 286 289 290 290 287 284 283 282 282 280 279 279 279 279 279 279 277 282 280 280 282 281 282 283 284 285 285
280 280 282 283 282 283 286 287 288 286 286 285 285 285 285 285 285 285 288 289 289 289 289 284 283 282 280 279 279 279 279 279 280 280 280 278 281 280 281 281 284 285 285
278 278 279 281 280 280 284 286 287 286 286 285 285 285 284 285 285 283 283 284 285 285 286 286 285 285 283 281 281 281 280 280 280 280 280 276 278 278 280 281 283 284 284
276 276 277 277 277 278 283 284 285 285 284 284 285 286 285 284 286 287 282 282 283 283 286 289 288 288 287 285 284 281 278 277 276 277 278 276 277 277 278 278 280 282 283
275 275 275 275 276 276 280 282 283 283 283 284 284 285 285 284 286 288 283 282 281 282 282 283 282 284 284 284 285 282 280 276 276 274 277 275 275 276 274 278 279 280 280
Wind_Speed
8 8 8 7 7 7 6 5 4 5 4 3 2 1 1 1 2 2 1 2 6 6 5 4 5 5 6 8 9 8 10 9 8 8 9 9 9 9 9 10 9 9 9
8 8 7 7 7 7 6 6 6 5 4 4 3 2 1 0 0 1 1 2 3 8 4 5 5 7 11 8 6 8 8 7 7 7 7 8 8 7 11 10 9 9 10
11 10 8 8 7 6 7 6 6 5 4 4 4 3 2 1 1 1 1 1 3 8 8 4 6 8 11 6 3 8 7 6 5 7 6 7 7 9 10 10 10 10 10
12 10 8 8 8 7 7 6 6 6 5 5 5 4 3 3 3 3 3 3 2 4 10 14 10 5 11 8 2 3 9 4 5 6 6 6 8 10 9 9 9 10 10
13 10 8 9 10 8 8 8 8 8 7 6 5 4 3 3 4 3 4 4 3 3 4 8 13 12 9 6 2 3 6 4 5 6 5 7 8 8 8 9 9 9 9
12 10 8 9 9 8 8 8 8 7 7 7 7 5 4 3 3 4 5 5 4 3 3 4 3 5 6 3 1 3 4 4 5 4 5 6 6 6 6 7 8 8 8
12 11 8 10 10 9 9 10 7 9 6 6 5 3 3 4 5 4 5 5 6 6 5 4 2 2 3 4 4 6 7 6 5 4 5 5 6 5 6 6 6 6 7
12 11 11 10 11 8 11 11 10 7 5 8 5 4 4 4 5 6 4 5 6 4 5 4 4 3 2 3 3 6 7 7 6 5 3 3 4 5 5 6 6 7 8
11 12 13 10 11 10 9 10 11 13 8 8 10 4 4 5 5 5 7 5 7 5 5 5 4 4 4 3 6 5 6 6 3 2 2 2 3 3 4 5 6 7 7
10 12 13 13 13 10 12 12 11 11 9 8 6 7 2 1 4 4 5 7 7 7 7 5 6 5 5 3 4 8 7 4 2 0 2 2 4 5 6 6 6 6 7
9 11 12 13 12 10 13 14 14 15 11 10 8 4 5 4 4 2 4 5 6 7 6 7 6 6 7 7 6 8 8 5 1 1 2 2 3 4 5 6 8 9 8
5 10 12 12 12 12 12 12 13 15 14 12 10 9 8 7 7 5 3 6 8 8 8 7 7 7 7 8 10 17 12 6 5 3 3 3 4 5 5 6 6 7 9
5 7 10 11 11 13 12 11 12 13 15 13 13 11 9 9 3 8 4 4 4 3 6 7 7 7 8 8 8 14 15 10 7 5 4 4 4 5 5 6 7 8 8
5 6 7 10 12 13 13 12 10 11 12 13 16 12 9 9 6 5 7 6 3 3 5 4 9 8 8 8 9 14 8 11 8 6 6 5 5 5 6 7 8 9 9
7 8 7 7 10 12 13 13 11 12 13 13 14 14 12 9 7 6 4 6 7 7 10 9 5 10 9 9 10 10 9 13 9 7 7 8 8 8 8 9 9 10 11
10 9 9 9 9 10 12 13 12 12 13 11 11 15 14 11 9 8 7 5 4 6 5 5 8 8 11 9 12 11 9 10 10 11 11 10 10 10 9 10 10 10 11
10 9 10 10 10 10 11 13 14 14 15 15 14 15 16 15 11 10 8 8 8 5 5 2 6 7 11 10 10 8 5 5 5 13 13 12 11 11 10 11 11 11 11
12 11 9 9 10 10 11 13 14 13 16 16 16 17 18 12 16 13 11 12 10 9 5 5 4 5 8 11 10 12 7 4 4 9 13 13 13 12 12 12 12 12 12
11 11 11 12 10 10 11 12 14 15 16 17 16 18 17 17 17 13 13 12 10 5 7 4 4 4 2 9 10 7 10 8 6 10 13 13 13 14 14 14 13 13 12
11 10 10 10 11 11 11 11 11 14 16 16 17 18 18 19 19 18 15 15 12 10 10 6 5 6 5 7 7 8 6 6 7 7 10 10 10 13 14 15 15 13 12
10 11 10 11 10 9 8 11 12 14 15 17 17 18 18 19 24 21 14 15 15 13 10 11 8 5 7 7 13 7 7 6 6 6 6 5 6 6 7 15 12 12 11
11 12 11 11 12 8 16 20 17 14 15 15 17 18 17 18 19 25 28 26 22 19 18 14 12 13 14 10 11 9 8 5 5 7 7 6 7 6 6 5 11 12 10
13 12 14 12 12 13 21 23 22 12 13 15 18 17 16 14 16 17 25 28 28 32 29 19 20 17 15 15 14 14 12 9 3 8 8 6 6 7 6 6 13 11 10
14 14 15 14 14 14 24 25 23 16 14 17 18 19 18 18 17 17 16 19 21 20 23 18 20 17 15 16 17 15 15 9 3 6 6 5 6 6 5 4 9 10 10
15 15 15 16 16 18 26 27 22 15 16 19 17 18 16 19 22 24 17 20 19 20 19 27 19 18 21 29 21 12 12 11 5 5 7 4 4 3 2 2 4 10 10
18 15 19 18 20 21 28 30 24 12 17 14 16 18 26 21 26 25 19 18 18 18 13 13 11 16 20 20 28 18 15 14 6 4 8 7 5 4 1 1 2 2 2
Wind_Direction
195 193 193 184 181 177 180 181 179 176 165 151 140 129 107 50 6 335 21 355 332 319 248 169 174 151 154 129 107 116 89 82 83 83 77 77 80 71 70 60 60 55 50
192 194 192 192 187 181 180 182 177 174 172 161 160 163 152 184 312 314 331 116 333 348 310 206 164 175 105 89 102 111 92 77 87 78 75 73 67 71 66 53 47 48 48
197 193 191 190 192 177 176 177 174 172 170 172 173 170 177 199 227 210 239 261 148 46 19 192 175 153 120 97 94 140 114 65 72 66 53 61 69 66 55 46 38 37 39
205 195 191 190 186 175 180 181 176 178 184 181 173 179 190 192 198 198 192 200 201 129 64 36 43 175 130 107 83 82 93 82 76 64 59 56 56 50 41 39 38 36 34
209 197 198 189 181 181 189 184 179 184 180 180 177 169 185 188 192 195 182 200 137 179 118 79 69 52 86 97 99 128 92 91 85 72 58 60 46 39 34 32 26 27 23
206 208 200 191 181 186 188 189 186 191 182 173 170 170 181 184 194 197 187 174 174 159 161 156 160 88 72 93 157 135 137 126 112 90 74 56 42 31 23 24 23 21 15
206 210 207 194 181 192 194 188 181 179 185 158 138 159 183 210 215 202 194 180 174 182 167 173 175 139 121 148 173 174 165 148 121 100 63 33 19 14 15 11 7 9 5
202 206 209 204 191 192 194 191 185 173 179 177 176 147 183 202 219 214 204 195 184 182 187 190 169 185 174 200 176 184 156 150 130 106 72 29 7 356 351 350 355 354 352
207 206 208 208 194 193 197 194 189 184 182 192 223 170 166 218 145 177 206 205 195 193 190 177 180 190 205 192 162 130 122 91 78 49 34 8 346 341 336 339 344 346 345
228 223 215 212 204 198 199 192 191 196 191 190 206 255 260 313 179 172 205 208 203 203 189 182 180 185 187 183 171 138 127 125 110 38 339 337 333 331 329 329 336 342 344
222 237 227 229 222 211 204 192 192 197 201 192 195 155 205 233 261 193 162 186 215 212 197 192 180 182 185 183 166 147 157 165 172 316 309 304 312 316 322 329 332 333 331
229 235 235 230 229 227 219 211 202 199 202 207 195 193 192 183 194 197 184 165 188 200 198 195 191 188 185 187 187 164 173 184 186 201 206 262 297 305 313 318 318 322 326
237 240 239 233 231 230 226 223 217 210 207 207 209 206 207 218 184 204 178 150 160 130 194 203 198 191 186 190 176 156 172 187 195 202 215 246 276 290 302 309 308 309 311
274 252 240 237 233 236 233 226 222 219 217 217 218 218 212 215 206 198 198 142 155 152 188 190 195 192 186 189 183 178 181 197 198 201 215 238 245 259 276 279 284 288 292
314 306 283 250 244 242 239 230 226 226 221 216 218 219 220 214 210 210 207 182 176 177 207 190 179 193 186 181 163 174 203 184 194 212 225 235 239 243 249 260 270 283 295
321 311 299 278 262 246 244 239 234 225 226 224 221 220 217 216 207 202 204 206 221 193 203 166 200 173 184 180 168 184 192 160 191 216 220 232 235 241 255 259 266 279 286
335 317 307 294 276 256 251 246 239 236 229 226 223 224 223 212 212 204 201 202 211 202 183 23 165 158 181 182 162 181 188 185 211 216 220 223 231 240 251 259 272 278 284
338 332 313 290 283 270 257 254 245 241 238 233 228 223 222 216 220 211 205 204 207 202 189 149 178 160 185 191 188 173 180 192 205 222 224 228 230 238 245 256 262 269 275
327 330 328 320 298 285 272 263 257 247 243 241 234 229 226 220 217 211 209 206 201 185 200 148 151 153 163 179 196 195 175 176 194 218 227 231 239 244 237 244 253 261 275
319 321 318 310 302 291 276 272 257 257 255 247 243 237 231 225 220 211 208 206 197 189 191 176 156 164 161 173 199 195 204 187 185 196 224 225 226 231 235 247 257 263 271
305 304 306 306 298 289 284 274 269 256 253 257 251 241 236 232 229 219 210 206 194 192 190 193 190 172 175 161 191 196 216 182 181 182 196 214 219 216 230 244 248 245 242
301 301 295 296 297 291 286 281 274 266 261 254 256 253 241 235 229 229 223 213 204 195 198 192 197 204 195 183 176 169 193 188 191 184 182 216 191 219 215 218 233 235 247
298 296 294 287 290 292 290 284 280 264 255 256 256 251 249 240 227 224 227 226 217 211 206 197 199 204 190 182 171 174 187 199 198 150 164 180 187 219 216 217 225 244 256
297 295 293 289 289 287 285 284 277 265 261 255 250 253 251 245 234 214 213 223 225 222 220 210 211 202 198 181 180 180 176 171 97 147 148 179 172 206 197 201 236 249 268
295 293 289 287 281 279 279 279 277 268 257 258 254 245 242 251 244 224 211 218 220 228 223 226 215 210 187 177 167 152 167 164 178 194 177 179 168 178 197 237 266 276 271
289 290 287 282 279 275 273 273 269 261 262 258 253 248 237 234 241 240 217 214 216 224 211 214 205 203 188 183 178 178 170 173 156 166 180 174 170 157 180 128 253 217 189